This demonstration page uses our WeatherBlox Daily Observations layout. Learn more.

Left ArrowRight Arrow

39.92423, -83.80882

Hourly Observations for June 29, 2021

Temp ( °F °C ) Dew Point ( °F °C ) Humidity (%) Winds ( mph kmh ) Pressure ( in mb ) Visibility ( mi km ) Precip ( " mm )
12:56 am 00:56 Clear 78 25.6 76 24.4 93 93 S 7 11 30.21 1023 10 16 N/A
1:56 am 01:56 Clear 73 23 N/A N/A SE 3 6 30.21 1023 10 16 N/A
2:56 am 02:56 Clear 72 22 N/A N/A SE 6 9 30.19 1023 10 16 N/A
3:56 am 03:56 Clear 73 23 N/A N/A N N/A 30.20 1023 10 16 N/A
4:56 am 04:56 Clear 70 21 N/A N/A ESE 3 6 30.20 1023 10 16 N/A
5:56 am 05:56 Clear 70 21 N/A N/A N N/A 30.21 1023 10 16 N/A
6:56 am 06:56 Sunny 73 23 N/A N/A N N/A 30.22 1023 10 16 N/A
7:56 am 07:56 Sunny 79 26.1 77 25 94 94 N N/A 30.22 1023 10 16 N/A
8:56 am 08:56 Sunny 82 27.8 76 24.4 82 82 SW 3 6 30.22 1024 10 16 N/A
9:56 am 09:56 Sunny 86 30 76 24.4 72 72 WSW 3 6 30.22 1024 10 16 N/A
10:56 am 10:56 Sunny 87 30.6 74 23.3 65 65 VRB 5 7 30.21 1023 7 11 N/A
11:56 am 11:56 Partly Cloudy 87 30.6 74 23.3 65 65 SSW 3 6 30.20 1023 10 16 N/A
12:56 pm 12:56 Partly Cloudy 89 31.7 74 23.3 61 61 VRB 7 11 30.19 1022 10 16 N/A
1:56 pm 13:56 Partly Cloudy 91 32.8 73 22.8 56 56 SSW 8 13 30.17 1022 10 16 N/A
2:56 pm 14:56 Mostly Sunny 92 33.3 73 22.8 54 54 SW 8 13 30.15 1021 10 16 N/A
3:56 pm 15:56 Mostly Cloudy 90 32.2 73 22.8 58 58 VRB 3 6 30.13 1020 10 16 N/A
4:26 pm 16:26 Mostly Cloudy with Nearby Thunderstorms 90 32 75 24 63 63 S 6 9 30.08 1019 10 16 N/A
4:56 pm 16:56 Mostly Cloudy with Nearby Thunderstorms 88 31.1 74 23.3 63 63 WSW 8 13 30.13 1020 9 14 N/A
5:18 pm 17:18 Cloudy with Thunderstorms 81 27 72 22 74 74 WNW 14 22 30.11 1019 10 16 0.00 0.00
5:47 pm 17:47 Mostly Sunny 81 27 73 23 79 79 N 5 7 30.10 1019 10 16 0.00 0.00
5:56 pm 17:56 Sunny 82 27.8 74 23.3 77 77 ENE 7 11 30.14 1021 10 16 0.00 0.00
6:56 pm 18:56 Sunny 81 27.2 74 23.3 79 79 E 8 13 30.14 1021 10 16 N/A
7:54 pm 19:54 Partly Cloudy with Nearby Thunderstorms 79 26 72 22 79 79 SSE 5 7 30.11 1020 10 16 N/A
7:56 pm 19:56 Partly Cloudy with Nearby Thunderstorms 79 26.1 72 22.2 79 79 SSE 6 9 30.14 1021 10 16 N/A
8:43 pm 20:43 Mostly Cloudy 81 27 73 23 79 79 SSW 5 7 30.13 1020 10 16 N/A
8:56 pm 20:56 Mostly Cloudy 79 26.1 74 23.3 85 85 W 6 9 30.16 1022 10 16 N/A
9:39 pm 21:39 Mostly Clear with Nearby Thunderstorms 79 26 73 23 84 84 WSW 12 19 30.13 1020 10 16 N/A
9:56 pm 21:56 Mostly Clear with Thunderstorms 78 25.6 73 22.8 85 85 WSW 7 11 30.15 1021 10 16 N/A
10:05 pm 22:05 Mostly Clear 77 25 73 23 89 89 SW 7 11 30.13 1020 10 16 N/A
10:56 pm 22:56 Mostly Clear 75 24 N/A N/A N 7 11 30.17 1022 10 16 0.00 0.00
11:56 pm 23:56 Clear 73 23 N/A N/A N N/A 30.16 1021 10 16 N/A

Powered by AerisWeather